Weather History for Perryton, TX

Change the Weather History Date:

Saturday, March 9, 2013

  Actual Average Record
Temperature  
Mean Temperature 52 °F -  
Max Temperature 67 °F 60 °F 80 °F (1977)
Min Temperature 36 °F 28 °F 8 °F (1967)
Degree Days  
Heating Degree Days 13    
Growing Degree Days 2 (Base 50)    
Moisture  
Dew Point 37 °F    
Average Humidity 62    
Maximum Humidity 96    
Minimum Humidity 14    
Precipitation  
Precipitation 0.02 in - - ()
Sea Level Pressure  
Sea Level Pressure 29.67 in    
Wind  
Wind Speed 18 mph (SW)    
Max Wind Speed 32 mph    
Max Gust Speed 44 mph    
Visibility 10 miles    
Events      
Averages and records for this station are not official NWS values.
T = Trace of Precipitation, MM = Missing Value Source: NWS Daily Summary

Daily Weather History Graph

Daily Weather History Graph

Search for Another Location

Airport:

Trip Planner

Search our weather history database for the weather conditions in past years. The results will help you decide how hot, cold, wet, or windy it might be!

Date:

Astronomy

Mar. 09, 2013 Rise Set
Actual Time 7:02 AM CST 6:45 PM CST
Civil Twilight 6:36 AM CST 7:11 PM CST
Nautical Twilight 6:06 AM CST 7:40 PM CST
Astronomical Twilight 5:36 AM CST 8:10 PM CST
Moon 5:24 AM CST (3/9) 4:51 PM CST (3/9)
Length of Visible Light 12h 34m
Length of Day
11h 43m
Waning Crescent, 5% of the Moon is Illuminated
Mar 9
Waning Crescent
Mar 11
New
Mar 19
First Quarter
Mar 27
Full
Apr 2
Last Quarter

Hourly Weather History & Observations

Time (CST) Temp. Windchill Dew Point Humidity Pressure Visibility Wind Dir Wind Speed Gust Speed Precip Events Conditions
12:15 AM 56.5 °F - 54.7 °F 94% 29.77 in 10.0 mi South 15.0 mph - N/A   Mostly Cloudy
12:35 AM 56.3 °F - 54.5 °F 94% 29.76 in 10.0 mi SSE 15.0 mph - N/A   Mostly Cloudy
12:55 AM 56.3 °F - 53.8 °F 91% 29.77 in 10.0 mi South 11.5 mph 17.3 mph N/A   Overcast
1:15 AM 55.6 °F - 53.2 °F 92% 29.77 in 10.0 mi South 12.7 mph - N/A   Overcast
1:35 AM 54.9 °F - 52.9 °F 93% 29.76 in 7.0 mi SSE 13.8 mph - N/A   Overcast
1:55 AM 54.9 °F - 53.1 °F 94% 29.77 in 10.0 mi South 12.7 mph - 0.01 in   Overcast
2:15 AM 55.0 °F - 53.6 °F 95% 29.75 in 7.0 mi SSE 11.5 mph - N/A   Overcast
2:35 AM 55.4 °F - 53.8 °F 94% 29.73 in 5.0 mi South 9.2 mph - N/A   Overcast
2:55 AM 55.2 °F - 53.8 °F 95% 29.72 in 5.0 mi South 9.2 mph - N/A   Overcast
3:15 AM 54.7 °F - 53.6 °F 96% 29.72 in 4.0 mi South 10.4 mph - 0.01 in   Overcast
3:35 AM 54.3 °F - 53.2 °F 96% 29.70 in 5.0 mi South 12.7 mph - 0.01 in   Overcast
3:55 AM 53.8 °F - 52.7 °F 96% 29.71 in 7.0 mi South 10.4 mph - 0.01 in   Overcast
4:15 AM 53.2 °F - 52.0 °F 95% 29.70 in 7.0 mi South 10.4 mph - N/A   Overcast
4:35 AM 52.9 °F - 51.8 °F 96% 29.69 in 10.0 mi South 12.7 mph - N/A   Mostly Cloudy
4:55 AM 52.9 °F - 51.8 °F 96% 29.69 in 10.0 mi South 8.1 mph - N/A   Overcast
5:15 AM 52.9 °F - 51.8 °F 96% 29.69 in 10.0 mi South 10.4 mph - N/A   Overcast
5:35 AM 52.7 °F - 51.3 °F 95% 29.69 in 10.0 mi South 9.2 mph - N/A   Overcast
5:55 AM 52.3 °F - 51.1 °F 95% 29.69 in 10.0 mi South 10.4 mph - N/A   Mostly Cloudy
6:15 AM 52.2 °F - 51.1 °F 96% 29.69 in 10.0 mi SSE 9.2 mph - N/A   Mostly Cloudy
6:35 AM 51.8 °F - 50.7 °F 96% 29.69 in 10.0 mi South 9.2 mph - N/A   Mostly Cloudy
6:55 AM 51.8 °F - 50.7 °F 96% 29.70 in 10.0 mi South 9.2 mph - N/A   Mostly Cloudy
7:15 AM 51.3 °F - 50.0 °F 95% 29.69 in 10.0 mi SSW 10.4 mph - N/A   Scattered Clouds
7:35 AM 51.1 °F - 50.0 °F 96% 29.69 in 10.0 mi South 10.4 mph - N/A   Scattered Clouds
7:55 AM 51.8 °F - 50.5 °F 95% 29.69 in 10.0 mi South 10.4 mph - N/A   Scattered Clouds
8:15 AM 53.6 °F - 52.3 °F 95% 29.68 in 10.0 mi South 10.4 mph - N/A   Scattered Clouds
8:35 AM 55.2 °F - 51.8 °F 88% 29.67 in 10.0 mi SSW 17.3 mph 21.9 mph N/A   Scattered Clouds
8:55 AM 55.4 °F - 50.2 °F 83% 29.67 in 10.0 mi SSW 17.3 mph - N/A   Mostly Cloudy
9:15 AM 57.0 °F - 49.3 °F 75% 29.66 in 10.0 mi South 19.6 mph 25.3 mph N/A   Scattered Clouds
9:35 AM 58.8 °F - 45.3 °F 61% 29.65 in 10.0 mi SSW 20.7 mph 27.6 mph N/A   Clear
9:55 AM 59.4 °F - 43.7 °F 56% 29.65 in 10.0 mi SSW 28.8 mph 34.5 mph N/A   Clear
10:15 AM 59.9 °F - 41.4 °F 50% 29.65 in 10.0 mi SW 25.3 mph 34.5 mph N/A   Clear
10:35 AM 60.8 °F - 39.4 °F 45% 29.64 in 10.0 mi SW 26.5 mph 32.2 mph N/A   Clear
10:55 AM 61.9 °F - 38.5 °F 42% 29.64 in 10.0 mi SW 25.3 mph 32.2 mph N/A   Clear
11:15 AM 61.9 °F - 33.3 °F 34% 29.64 in 10.0 mi SW 27.6 mph 34.5 mph N/A   Clear
11:35 AM 62.8 °F - 32.9 °F 33% 29.64 in 10.0 mi SW 24.2 mph 32.2 mph N/A   Clear
11:55 AM 63.9 °F - 31.8 °F 30% 29.63 in 10.0 mi SSW 28.8 mph 34.5 mph N/A   Clear
12:15 PM 64.2 °F - 30.0 °F 28% 29.63 in 10.0 mi SW 29.9 mph 35.7 mph N/A   Clear
12:35 PM 65.3 °F - 28.4 °F 25% 29.61 in 10.0 mi SW 27.6 mph 39.1 mph N/A   Clear
12:55 PM 66.2 °F - 25.0 °F 21% 29.61 in 10.0 mi SW 32.2 mph 38.0 mph N/A   Clear
1:15 PM 65.7 °F - 24.1 °F 21% 29.60 in 10.0 mi SW 26.5 mph 40.3 mph N/A   Clear
1:35 PM 65.8 °F - 22.3 °F 19% 29.59 in 10.0 mi SW 29.9 mph 39.1 mph N/A   Clear
1:55 PM 66.4 °F - 20.3 °F 17% 29.57 in 10.0 mi SW 28.8 mph 39.1 mph N/A   Clear
2:15 PM 67.3 °F - 19.4 °F 16% 29.57 in 10.0 mi SW 27.6 mph 39.1 mph N/A   Clear
2:35 PM 66.9 °F - 20.5 °F 17% 29.57 in 10.0 mi SW 25.3 mph 38.0 mph N/A   Clear
2:55 PM 66.6 °F - 19.4 °F 17% 29.56 in 10.0 mi SSW 28.8 mph 35.7 mph N/A   Clear
3:15 PM 66.6 °F - 18.1 °F 16% 29.55 in 10.0 mi SW 25.3 mph 36.8 mph N/A   Clear
3:35 PM 66.9 °F - 17.1 °F 15% 29.55 in 10.0 mi SW 29.9 mph 35.7 mph N/A   Clear
3:55 PM 65.7 °F - 15.8 °F 15% 29.56 in 10.0 mi SW 29.9 mph 40.3 mph N/A   Clear
4:15 PM 65.1 °F - 14.9 °F 14% 29.55 in 10.0 mi SW 23.0 mph 39.1 mph N/A   Clear
4:35 PM 64.4 °F - 14.9 °F 15% 29.56 in 10.0 mi SW 31.1 mph 38.0 mph N/A   Clear
4:55 PM 63.5 °F - 14.0 °F 15% 29.56 in 10.0 mi SW 31.1 mph 39.1 mph N/A   Clear
5:15 PM 62.4 °F - 11.8 °F 14% 29.57 in 10.0 mi WSW 28.8 mph 43.7 mph N/A   Clear
5:35 PM 61.7 °F - 12.2 °F 14% 29.57 in 10.0 mi SW 27.6 mph 38.0 mph N/A   Clear
5:55 PM 60.4 °F - 11.5 °F 15% 29.59 in 10.0 mi WSW 29.9 mph 38.0 mph N/A   Clear
6:15 PM 58.6 °F - 11.3 °F 15% 29.59 in 10.0 mi WSW 25.3 mph 38.0 mph N/A   Clear
6:35 PM 56.1 °F - 21.7 °F 26% 29.60 in 10.0 mi NW 29.9 mph 36.8 mph N/A   Clear
6:55 PM 48.0 °F - 34.5 °F 60% 29.64 in 10.0 mi NW 29.9 mph 34.5 mph N/A   Scattered Clouds
7:15 PM 44.8 °F 35.3 °F 33.8 °F 65% 29.65 in 10.0 mi NNW 27.6 mph 34.5 mph N/A   Clear
7:35 PM 43.2 °F 34.5 °F 33.3 °F 68% 29.67 in 10.0 mi NNW 20.7 mph 27.6 mph N/A   Clear
7:55 PM 41.7 °F 31.9 °F 32.5 °F 70% 29.70 in 10.0 mi NW 24.2 mph 28.8 mph N/A   Clear
8:15 PM 41.2 °F 31.9 °F 32.0 °F 70% 29.73 in 10.0 mi NW 20.7 mph 26.5 mph N/A   Scattered Clouds
8:35 PM 41.5 °F 31.9 °F 32.0 °F 69% 29.72 in 10.0 mi NW 23.0 mph 27.6 mph N/A   Overcast
8:55 PM 40.1 °F 30.5 °F 31.3 °F 71% 29.72 in 10.0 mi NW 20.7 mph 25.3 mph N/A   Mostly Cloudy
9:15 PM 38.8 °F 28.0 °F 30.2 °F 71% 29.73 in 10.0 mi NW 24.2 mph - N/A   Scattered Clouds
9:35 PM 39.2 °F 28.5 °F 30.4 °F 71% 29.75 in 10.0 mi NW 24.2 mph - N/A   Overcast
9:55 PM 38.8 °F 28.0 °F 30.2 °F 71% 29.75 in 10.0 mi NNW 24.2 mph 27.6 mph N/A   Overcast
10:15 PM 38.5 °F 27.5 °F 30.2 °F 72% 29.74 in 10.0 mi NW 24.2 mph 28.8 mph N/A   Overcast
10:35 PM 37.6 °F 25.9 °F 29.7 °F 73% 29.74 in 10.0 mi NW 26.5 mph 32.2 mph N/A   Overcast
10:55 PM 37.6 °F 26.1 °F 29.8 °F 74% 29.73 in 10.0 mi NNW 25.3 mph 29.9 mph N/A   Overcast
11:15 PM 37.4 °F 26.4 °F 29.8 °F 74% 29.73 in 10.0 mi NNW 23.0 mph 29.9 mph N/A   Overcast
11:35 PM 37.0 °F 24.9 °F 29.7 °F 75% 29.73 in 10.0 mi NW 27.6 mph 34.5 mph N/A   Overcast
11:55 PM 36.5 °F 23.7 °F 29.8 °F 77% 29.73 in 10.0 mi NW 29.9 mph 35.7 mph N/A   Overcast